Location: Larkspur
(54.4391°N, 113.7691°W)
Time: 19:26:52
(UTC+00:00)

LilacSat-2 - Pass Details

Date: 13 December 2023
Orbit: 485 x 503 km, 97.5° (Epoch: 04 March)

Event Time Altitude Azimuth Distance (km) Brightness Sun altitude
Rises 01:02:02 0° 176° (S) 2,584 ? -14.9°
Reaches altitude 10° 01:04:08 10° 181° (S) 1,710 ? -15.2°
Maximum altitude 01:07:45 54° 259° (W) 622 ? -15.7°
Drops below altitude 10° 01:11:26 10° 338° (NNW) 1,739 ? -16.2°
Sets 01:13:35 0° 343° (NNW) 2,633 ? -16.5°
